User: anonymous   Login
Location: Unspecified
(0.0000°N, 0.0000°E)
Time: 15:04:47
(UTC+02:00)
Language:

JASON 2 - Orbit

View from above orbital plane
View from above orbital plane
View from above satellite
View from above satellite

Ground track
Ground track

The orbit data is extracted from the following two-line orbital elements,

1 33105U 08032A   18140.94782765 -.00000067 +00000-0 -18529-4 0  9991
2 33105 066.0389 131.9732 0008397 272.0546 149.8811 12.87626691464010
Epoch (UTC): 20 May 2018 22:44:52
Eccentricity: 0.0008397
inclination: 66.0389°
perigee height: 1304 km
apogee height: 1317 km
right ascension of ascending node: 131.9732°
argument of perigee: 272.0546°
revolutions per day: 12.87626691
mean anomaly at epoch: 149.8811°
orbit number at epoch: 46401

The dashed part of the orbit path shows where the satellite is in the earth's shadow,  

DLR